Vertical_Velocity
-0 -0 0 0 0 -1 -6 -2 -6 -2 -4 5 2 0 -2 -2 -0 0 -3 -1 -4 -6 -5 -3 -3 -2 -4 -8 -5 -1 -2 -4 -2 0 3 6 2 -1 7 3 5 4 -1 2
-0 -1 0 -2 -0 -1 2 1 -3 1 -16 13 1 -1 -3 1 2 -6 -6 -4 -2 -3 -2 -1 -1 -3 -3 -2 -2 -3 -2 -0 -2 -0 5 8 1 -3 3 0 4 1 -5 -5
-1 -1 0 1 1 3 2 -1 6 -6 4 -0 1 -2 4 -0 -2 -1 -4 -1 0 -2 -3 -1 -1 -3 -2 -2 -2 -4 -3 -6 -3 4 -3 2 3 0 2 -4 -3 -2 -9 -0
-2 -0 -4 2 1 0 -0 0 -1 -1 1 2 -0 2 3 -1 -2 -6 -2 -0 -0 -0 -1 -1 -1 -4 -1 -3 -5 -5 -5 -5 3 4 2 1 2 8 28 -2 5 -3 -2 -0
-1 -1 -4 2 1 1 1 3 2 -0 1 -0 1 1 1 -1 0 0 0 -1 -1 -3 -4 -1 -1 -1 0 -4 -7 -2 -0 -3 -1 2 -1 -0 -6 -0 1 3 0 -0 1 5
-2 -0 -1 1 1 1 -0 -1 -1 -0 1 -2 -4 -4 2 2 1 -1 -2 -0 -2 -2 -4 0 -2 -0 -2 -6 -1 -1 -1 -0 0 2 -4 -0 3 2 3 1 -2 6 6 -1
1 -2 -6 1 -2 2 0 1 -2 -1 0 0 -2 -1 1 -0 -0 -1 -4 -2 -4 1 -1 -3 -1 -2 -1 -2 -5 -0 1 3 1 -1 -1 -0 0 -1 2 2 3 2 4 -1
-0 -1 -6 -0 -1 -0 -0 3 -2 2 3 4 1 0 -0 -0 -1 -2 -2 -1 -1 2 -3 1 -0 -3 -2 -2 0 1 1 2 0 -2 1 2 4 -0 -2 4 3 -3 -3 1
-4 -1 1 1 3 2 -1 -3 -3 1 3 1 -1 0 1 -1 -1 -2 -1 0 -2 0 -1 1 -2 -1 1 -1 0 1 -1 1 -0 1 1 -0 -0 3 2 -5 1 3 1 2
-1 2 3 4 2 -2 1 -0 2 1 2 -0 0 -1 1 -0 0 -4 1 -2 -3 -2 -1 -4 -2 0 1 -0 -1 -2 -0 1 1 -1 -0 -0 1 1 0 1 0 -1 -1 -2
-5 3 -2 -3 -5 7 1 -0 -2 -1 -0 -0 -1 -0 1 -0 0 -1 -1 0 -2 -1 -1 -2 -1 -1 -4 0 -1 -3 -1 0 1 1 -0 1 1 2 1 -0 -1 -1 -1 -1
-5 5 -3 -1 1 -1 -1 -0 -3 -0 1 -0 -1 -2 -0 1 -1 -1 -2 -1 2 0 -1 -0 -1 -1 -2 -3 -1 -1 -0 0 0 1 0 0 -1 -1 -1 -0 0 -0 -1 -0
-1 0 -0 0 -1 -2 -1 -1 -1 0 1 0 -1 -1 -0 1 -1 4 4 -3 0 0 0 1 -0 -0 -1 -2 -1 -0 0 0 -1 -1 -1 0 0 0 -0 -1 -2 -2 -2 -1
-1 1 1 -1 -1 -1 0 0 1 1 -0 1 1 1 -1 -1 -2 2 4 -2 -2 1 -0 1 -1 -1 -2 -0 -0 0 -0 0 0 0 1 -0 -1 -1 -2 -2 -2 -0 2 2
-1 -1 -2 0 -0 -2 -0 -1 0 0 0 1 1 1 -0 0 -1 1 6 2 -2 0 -0 0 0 -0 -0 0 0 -0 1 1 1 0 -0 -1 -1 -2 -2 -1 -0 -0 -1 -1
-1 -3 1 -0 -0 -1 1 1 1 0 1 1 1 0 0 -0 -1 -3 4 2 1 8 1 -1 -2 1 0 0 -0 -0 -0 -0 -0 -0 -0 -0 -1 -1 -0 -0 0 -0 -1 -1
-4 1 -0 0 -1 -2 -2 0 -0 1 1 1 1 1 -3 -1 -1 2 -1 1 4 4 2 -0 0 -1 -1 -1 -1 -1 0 -0 0 -0 -1 -1 -1 -1 -1 -1 -1 -1 -1 -1
-2 -0 -0 -1 1 -1 -0 -2 -0 0 0 1 2 1 1 0 0 1 2 4 2 1 7 1 -3 1 0 -2 -1 -0 0 -0 0 0 -0 -1 -1 -2 -2 -1 -2 -2 -2 -2
-2 -1 -1 0 1 -1 -2 0 1 -1 2 1 -0 -0 -1 -1 1 0 -0 -1 3 7 4 0 0 1 2 -2 -1 0 1 2 1 -0 -0 -1 -2 -2 -1 -2 -2 -1 -0 -1
-2 -1 0 1 1 1 0 1 1 -1 -0 -2 0 1 -0 -1 -1 -0 -0 2 2 3 3 3 1 2 -3 -2 1 1 1 0 -0 -0 -0 -1 -1 -2 -2 -1 -1 0 -0 -1
-1 1 1 1 2 1 -2 5 -3 -1 0 2 -2 -2 2 -3 1 2 -1 0 0 -0 -0 2 1 -4 0 0 1 1 0 -0 -0 -0 -1 -0 -1 -1 -1 -2 -1 -1 -1 -1
5 9 8 9 6 2 2 -0 2 -2 -0 -0 1 5 5 2 1 -1 1 -3 -2 -1 1 -1 0 1 1 1 1 0 -0 0 -0 -1 -1 -1 -1 -0 -0 0 0 -0 -0 -1
-3 -1 2 3 8 8 7 4 2 -2 -1 1 -1 -0 -1 -2 -0 0 0 0 2 0 -0 0 0 0 2 2 2 1 0 -0 -1 -0 -0 -0 -0 -1 -1 -1 -1 -2 -2 -2
1 1 -1 -2 -4 -5 0 7 9 8 7 -0 -2 -0 1 -1 -1 -0 0 -1 -3 -2 -0 1 1 2 1 1 2 1 -0 -0 -0 -0 -0 0 -0 0 -0 0 -1 -1 -2 -1
1 1 0 1 1 0 -0 -2 -4 -2 0 3 7 9 5 4 1 -1 -0 -1 0 0 -0 -0 -0 1 1 1 1 0 -0 0 -0 -0 -1 -1 0 -1 -1 -1 -2 -2 -1 -2
0 -1 -1 -1 -1 -2 -2 -1 -1 0 0 -2 -1 -1 -1 1 6 4 3 2 3 -1 -0 -1 1 -0 -1 1 1 1 1 0 1 1 -0 0 0 1 1 -2 -0 -2 -2 -1
-3 -0 -0 -3 -1 -0 -0 -2 -1 0 1 -1 -0 2 2 1 1 1 1 3 5 -1 -1 0 0 -0 1 1 1 1 0 -2 -1 0 -1 -1 1 0 0 -1 0 -0 -2 -2
Height
3013 3013 3014 3015 3016 3018 3019 3021 3022 3020 3020 3023 3024 3022 3020 3020 3020 3019 3016 3014 3012 3008 3006 3003 3001 2999 2996 2992 2991 2989 2985 2983 2982 2984 2990 2996 3001 3004 3006 3009 3012 3016 3020 3023
3012 3013 3013 3014 3015 3016 3018 3018 3016 3018 3016 3020 3018 3016 3016 3016 3015 3014 3012 3009 3007 3003 3000 2997 2995 2993 2991 2989 2987 2983 2981 2979 2980 2983 2990 2994 2995 2998 3001 3004 3008 3011 3013 3017
3012 3012 3012 3011 3009 3011 3012 3013 3015 3015 3016 3015 3014 3014 3014 3014 3012 3011 3008 3006 3002 2998 2995 2994 2992 2990 2989 2986 2983 2981 2982 2981 2982 2985 2988 2990 2991 2995 2997 3001 3004 3006 3010 3012
3011 3010 3012 3008 3008 3009 3010 3011 3012 3013 3013 3012 3012 3012 3011 3011 3009 3007 3004 3001 2998 2995 2993 2991 2990 2989 2987 2984 2984 2982 2982 2983 2984 2985 2989 2988 2987 2991 2991 2997 3000 3002 3004 3007
3011 3010 3009 3007 3008 3009 3010 3012 3011 3011 3011 3009 3008 3009 3009 3007 3006 3003 3000 2997 2994 2993 2991 2988 2989 2988 2987 2985 2984 2982 2982 2983 2982 2985 2987 2988 2990 2990 2992 2993 2996 2998 3002 3004
3011 3011 3009 3008 3007 3008 3009 3010 3010 3010 3009 3007 3007 3006 3006 3004 3002 2998 2995 2995 2992 2991 2990 2988 2987 2987 2985 2984 2982 2982 2982 2981 2982 2985 2986 2986 2986 2989 2991 2993 2995 2998 3000 3003
3009 3009 3006 3006 3006 3008 3009 3013 3008 3008 3007 3005 3004 3004 3002 3001 2998 2996 2993 2991 2990 2990 2989 2988 2986 2985 2984 2982 2982 2982 2981 2981 2983 2985 2986 2986 2988 2989 2991 2993 2996 2999 3001 3002
3006 3008 3007 3004 3006 3008 3009 3007 3006 3005 3005 3003 3002 3001 3000 2998 2997 2994 2991 2988 2987 2988 2987 2987 2986 2985 2984 2983 2983 2982 2982 2983 2983 2985 2987 2989 2991 2994 2997 2998 2999 3000 3001 3003
3005 3004 3004 3005 3005 3006 3005 3005 3004 3004 3003 3002 3001 2999 2998 2996 2995 2993 2991 2989 2988 2986 2985 2984 2984 2984 2984 2984 2984 2985 2984 2985 2988 2990 2992 2994 2996 2998 2998 2999 3000 3001 3000 2999
3002 3002 3002 3002 3003 3003 3003 3002 3002 3001 3001 3000 2999 2998 2996 2994 2994 2993 2992 2989 2990 2988 2987 2984 2984 2985 2984 2988 2987 2988 2988 2991 2993 2995 2997 2998 2999 3000 3000 3001 3000 2999 2998 2998
2997 2999 2999 2999 2999 3000 3000 3000 3000 3000 2999 2998 2998 2997 2995 2993 2994 2994 2993 2992 2991 2991 2990 2989 2988 2988 2989 2990 2992 2993 2994 2995 2996 2998 2999 2999 3000 3000 3000 2999 2999 2998 2998 2997
2993 2996 2996 2997 2998 2997 2997 2997 2997 2998 2997 2997 2996 2995 2993 2992 2993 2993 2993 2993 2992 2992 2992 2993 2992 2992 2993 2994 2994 2996 2997 2998 3000 3000 3001 3001 3000 3000 2999 2999 2998 2997 2995 2993
2989 2991 2992 2993 2993 2993 2993 2994 2994 2994 2994 2994 2994 2993 2992 2991 2991 2992 2992 2992 2993 2993 2993 2993 2994 2994 2995 2996 2996 2997 2999 3000 3001 3001 3001 3000 3000 2999 2998 2997 2995 2994 2993 2991
2987 2988 2988 2989 2988 2989 2989 2989 2990 2990 2990 2990 2990 2991 2990 2990 2990 2990 2991 2991 2992 2993 2993 2993 2995 2995 2996 2997 2997 2998 3000 3000 3000 3001 3000 3000 2999 2997 2997 2996 2994 2992 2990 2986
2982 2982 2983 2983 2983 2984 2984 2984 2985 2985 2985 2985 2986 2987 2987 2987 2986 2987 2987 2988 2991 2992 2992 2993 2994 2996 2996 2997 2998 2999 3000 3000 3000 3000 2999 2998 2997 2996 2995 2993 2991 2988 2985 2981
2978 2978 2978 2977 2977 2977 2978 2979 2980 2980 2980 2980 2981 2981 2982 2982 2982 2983 2984 2985 2987 2988 2990 2991 2993 2995 2996 2997 2997 2998 2999 2999 2999 2999 2998 2997 2995 2994 2993 2991 2988 2985 2981 2976
2971 2972 2972 2972 2972 2972 2973 2974 2975 2975 2975 2975 2976 2976 2976 2977 2977 2977 2979 2981 2983 2985 2987 2989 2991 2993 2994 2996 2996 2996 2997 2997 2997 2997 2995 2994 2993 2992 2990 2987 2984 2980 2975 2969
2964 2965 2965 2965 2966 2968 2969 2969 2970 2970 2970 2969 2970 2971 2972 2972 2972 2973 2974 2976 2977 2981 2983 2986 2988 2990 2992 2994 2994 2995 2995 2996 2995 2994 2993 2992 2991 2989 2987 2984 2980 2975 2969 2963
2958 2957 2957 2958 2959 2962 2964 2965 2965 2965 2964 2964 2965 2965 2966 2967 2967 2969 2970 2971 2973 2976 2979 2983 2985 2987 2990 2991 2992 2992 2993 2993 2992 2991 2990 2989 2987 2985 2982 2979 2975 2969 2963 2957
2953 2951 2951 2952 2954 2957 2959 2960 2960 2959 2958 2960 2961 2961 2962 2963 2964 2965 2967 2968 2969 2972 2975 2979 2982 2985 2986 2988 2989 2990 2990 2990 2989 2988 2987 2985 2983 2981 2978 2974 2969 2964 2958 2952
2949 2949 2949 2950 2952 2954 2955 2954 2955 2954 2954 2955 2956 2957 2958 2960 2962 2964 2966 2967 2969 2971 2973 2977 2979 2981 2983 2985 2986 2986 2986 2986 2985 2984 2983 2981 2979 2976 2973 2969 2965 2959 2953 2946
2948 2948 2948 2949 2950 2951 2951 2951 2952 2952 2953 2953 2954 2955 2957 2959 2961 2963 2965 2966 2968 2970 2973 2975 2977 2978 2980 2981 2982 2982 2982 2982 2981 2980 2979 2977 2975 2972 2969 2965 2960 2955 2948 2942
2949 2949 2948 2948 2948 2948 2948 2948 2949 2950 2951 2952 2953 2954 2956 2957 2959 2961 2962 2964 2966 2968 2969 2971 2973 2974 2976 2977 2978 2978 2978 2977 2977 2976 2974 2972 2970 2967 2964 2960 2955 2950 2944 2938
2952 2951 2950 2949 2949 2947 2947 2946 2948 2949 2949 2951 2953 2954 2955 2956 2957 2958 2959 2961 2962 2964 2965 2967 2969 2970 2971 2972 2972 2973 2973 2972 2972 2971 2969 2968 2966 2963 2959 2955 2950 2945 2940 2934
2952 2952 2951 2950 2949 2949 2948 2947 2947 2947 2947 2948 2949 2949 2951 2952 2953 2954 2955 2956 2958 2960 2961 2963 2964 2965 2966 2967 2967 2968 2968 2967 2967 2966 2965 2963 2961 2958 2954 2950 2946 2941 2936 2931
2950 2949 2948 2947 2947 2946 2945 2945 2944 2943 2943 2944 2945 2945 2946 2947 2948 2949 2951 2952 2952 2953 2955 2957 2958 2959 2960 2961 2962 2962 2962 2962 2962 2961 2959 2958 2955 2952 2949 2945 2941 2936 2932 2928
2942 2941 2941 2940 2940 2940 2940 2939 2939 2939 2938 2938 2939 2939 2940 2941 2942 2944 2945 2946 2946 2947 2948 2949 2950 2952 2953 2955 2956 2956 2956 2956 2956 2955 2954 2952 2950 2947 2944 2940 2935 2931 2927 2923